TimeCDT,TemperatureF,Dew PointF,Humidity,Sea Level PressureIn,VisibilityMPH,Wind Direction,Wind SpeedMPH,Gust SpeedMPH,PrecipitationIn,Events,Conditions,WindDirDegrees,DateUTC
12:53 AM,64.0,57.9,80,30.09,10.0,North,3.5,-,N/A,,Mostly Cloudy,350,2012-10-05 05:53:00
1:53 AM,66.9,55.9,68,30.08,10.0,Calm,Calm,-,N/A,,Overcast,0,2012-10-05 06:53:00
2:53 AM,66.2,55.4,68,30.11,10.0,Calm,Calm,-,N/A,,Overcast,0,2012-10-05 07:53:00
3:53 AM,66.9,57.0,70,30.07,10.0,NW,4.6,-,N/A,,Overcast,320,2012-10-05 08:53:00
4:53 AM,62.1,55.9,80,30.07,10.0,NNW,8.1,-,N/A,,Overcast,330,2012-10-05 09:53:00
5:53 AM,59.0,53.1,81,30.07,10.0,NNW,5.8,-,N/A,,Mostly Cloudy,330,2012-10-05 10:53:00
6:53 AM,60.1,54.0,80,30.06,10.0,Calm,Calm,-,N/A,,Overcast,0,2012-10-05 11:53:00
7:53 AM,60.1,53.1,78,30.07,10.0,North,5.8,-,N/A,,Overcast,360,2012-10-05 12:53:00
8:38 AM,57.2,51.8,82,30.10,10.0,Variable,4.6,-,0.00,,Overcast,0,2012-10-05 13:38:00
8:51 AM,55.4,51.8,88,30.11,10.0,NNW,10.4,-,0.00,Rain-Thunderstorm,Light Thunderstorms and Rain,340,2012-10-05 13:51:00
8:53 AM,55.0,51.1,86,30.09,9.0,North,6.9,-,0.01,Rain-Thunderstorm,Light Thunderstorms and Rain,360,2012-10-05 13:53:00
9:38 AM,53.6,51.8,94,30.11,6.0,Calm,Calm,-,0.28,Rain,Light Rain,0,2012-10-05 14:38:00
9:53 AM,53.1,52.0,96,30.10,6.0,Variable,3.5,-,0.29,Rain,Rain,0,2012-10-05 14:53:00
10:53 AM,53.1,51.1,93,30.09,3.0,NNE,5.8,-,0.01,,Overcast,30,2012-10-05 15:53:00
11:53 AM,51.8,51.8,100,30.11,3.0,North,6.9,-,N/A,Rain,Light Rain,10,2012-10-05 16:53:00
12:53 PM,52.0,51.1,97,30.09,2.0,NNE,4.6,-,0.01,,Overcast,30,2012-10-05 17:53:00
1:53 PM,51.1,50.0,96,30.09,2.0,North,8.1,-,0.01,Rain,Light Rain,360,2012-10-05 18:53:00
2:06 PM,51.8,50.0,94,30.11,3.0,North,5.8,-,0.00,,Overcast,360,2012-10-05 19:06:00
2:53 PM,51.1,48.9,92,30.10,3.0,North,10.4,-,0.00,,Overcast,350,2012-10-05 19:53:00
3:53 PM,50.0,48.0,93,30.12,3.0,North,8.1,-,0.01,,Overcast,10,2012-10-05 20:53:00
4:53 PM,48.0,46.0,93,30.13,8.0,North,9.2,17.3,0.00,,Overcast,10,2012-10-05 21:53:00
5:53 PM,48.0,45.0,89,30.15,10.0,Variable,5.8,-,N/A,,Overcast,0,2012-10-05 22:53:00
6:53 PM,46.9,45.0,93,30.17,6.0,NNE,4.6,17.3,0.00,Rain,Light Rain,30,2012-10-05 23:53:00
7:53 PM,46.0,43.0,89,30.19,10.0,NNE,4.6,-,0.00,,Overcast,20,2012-10-06 00:53:00
8:53 PM,45.0,41.0,86,30.22,10.0,NE,6.9,16.1,N/A,,Overcast,40,2012-10-06 01:53:00
9:53 PM,44.1,39.0,82,30.23,10.0,NE,6.9,-,N/A,,Partly Cloudy,40,2012-10-06 02:53:00
10:53 PM,43.0,37.9,82,30.24,10.0,NE,4.6,-,N/A,,Clear,40,2012-10-06 03:53:00
11:53 PM,41.0,37.9,89,30.22,10.0,Variable,3.5,-,N/A,,Clear,0,2012-10-06 04:53:00